Date String (YYYY-MM-DD hh:mm:ss) UTC,Instrument flags,Ambient pressure (hPa),Sample flow (lpm),Bypass flow (lpm),Sample temperature (°C),Ambient temperature (°C),ASC tube jacket temperature (°C),LED temperature (°C),Box temperature (°C),Sample RH (%),Span deviation,Mass concentration (μg/m³),Mass concentration (μg/m³),Mass concentration (μg/m³)
DateTimeUTC,F1_M11,P_M11,Q1_M11,Q2_M11,T1_M11,T2_M11,T3_M11,T4_M11,T5_M11,U1_M11,ZSPAN_M11,X2_M11,X0_M11,X1_M11
2023-04-23 00:00:00,,0832.0,5.00,0.00,21.9,20.4,00.0,30.4,23.4,17.0,0002.3,0010.00,0012.54,0009.51
2023-04-23 00:01:00,,0831.9,4.99,0.00,21.9,20.3,00.0,30.4,23.4,16.8,0002.5,0009.98,0012.50,0009.49
2023-04-23 00:02:00,,0831.9,4.99,0.00,21.8,20.2,00.0,30.4,23.3,16.5,0002.4,0009.96,0012.81,0009.48
2023-04-23 00:03:00,,0831.9,5.00,0.00,21.8,20.2,00.0,30.3,23.4,16.6,0001.8,0009.98,0012.98,0009.51
2023-04-23 00:04:00,,0831.9,5.01,0.00,21.9,21.1,00.0,30.3,23.8,16.7,0001.4,0009.99,0013.22,0009.52
2023-04-23 00:05:00,,0831.9,4.99,0.00,22.1,22.2,00.0,30.2,24.1,16.2,0001.2,0010.00,0013.43,0009.52
2023-04-23 00:06:00,,0831.9,5.00,0.00,22.2,22.8,00.0,30.3,24.3,16.0,0001.4,0009.98,0013.37,0009.50
2023-04-23 00:07:00,,0831.9,4.99,0.00,22.2,22.6,00.0,30.4,24.1,15.9,0001.3,0009.97,0013.30,0009.48
2023-04-23 00:08:00,,0831.8,5.00,0.00,22.2,22.2,00.0,30.5,24.0,15.7,0001.0,0009.95,0013.41,0009.45
2023-04-23 00:09:00,,0831.8,5.00,0.00,22.2,21.8,00.0,30.5,23.9,15.7,0000.7,0009.92,0013.33,0009.45
2023-04-23 00:10:00,,0832.2,5.00,0.00,22.2,21.5,00.0,30.5,23.8,15.7,0000.6,0009.89,0013.31,0009.41
2023-04-23 00:11:00,,0832.0,5.01,0.00,22.2,21.3,00.0,30.5,23.8,15.7,0000.1,0009.87,0013.38,0009.35
2023-04-23 00:12:00,,0832.1,5.01,0.00,22.2,21.1,00.0,30.5,23.7,15.8,-000.3,0009.79,0013.35,0009.26
2023-04-23 00:13:00,,0831.8,5.00,0.00,22.1,20.9,00.0,30.5,23.7,15.5,-000.3,0009.70,0012.90,0009.18
2023-04-23 00:14:00,,0832.0,4.99,0.00,22.1,20.7,00.0,30.5,23.6,15.5,0000.1,0009.60,0012.64,0009.09
2023-04-23 00:15:00,,0831.9,5.01,0.00,22.1,20.5,00.0,30.5,23.5,15.6,0000.1,0009.51,0012.17,0009.02
2023-04-23 00:16:00,,0832.0,5.01,0.00,22.0,20.4,00.0,30.5,23.5,15.7,0000.5,0009.46,0011.79,0008.98
2023-04-23 00:17:00,,0832.0,5.00,0.00,22.0,20.3,00.0,30.5,23.4,15.7,0000.5,0009.39,0011.70,0008.93
2023-04-23 00:18:00,,0832.2,5.01,0.00,22.0,20.2,00.0,30.5,23.4,15.7,0000.4,0009.36,0011.67,0008.90
2023-04-23 00:19:00,,0832.1,4.99,0.00,21.9,20.2,00.0,30.5,23.4,15.7,0000.3,0009.35,0011.50,0008.87
2023-04-23 00:20:00,,0832.2,4.99,0.00,21.9,20.2,00.0,30.5,23.3,15.8,0000.2,0009.33,0011.46,0008.82
2023-04-23 00:21:00,,0832.1,5.00,0.00,21.9,20.2,00.0,30.5,23.4,15.9,0000.2,0009.29,0011.43,0008.81
2023-04-23 00:22:00,,0831.9,5.01,0.00,21.9,20.2,00.0,30.4,23.4,16.0,0000.3,0009.26,0011.36,0008.81
2023-04-23 00:23:00,,0832.2,5.00,0.00,21.9,20.2,00.0,30.4,23.3,15.9,0000.1,0009.26,0011.37,0008.81
2023-04-23 00:24:00,,0832.0,5.00,0.00,21.8,20.2,00.0,30.4,23.3,15.6,-000.1,0009.24,0011.35,0008.79
2023-04-23 00:25:00,,0832.3,4.99,0.00,21.8,20.1,00.0,30.4,23.3,15.8,0000.1,0009.21,0011.31,0008.78
2023-04-23 00:26:00,,0832.1,4.99,0.00,21.8,20.1,00.0,30.4,23.3,15.6,0000.4,0009.22,0011.37,0008.77
2023-04-23 00:27:00,,0832.2,5.00,0.00,21.8,20.1,00.0,30.4,23.3,15.8,-000.1,0009.18,0011.39,0008.72
2023-04-23 00:28:00,,0832.1,5.02,0.00,21.8,20.1,00.0,30.4,23.3,15.5,-000.3,0009.17,0011.44,0008.70
2023-04-23 00:29:00,,0831.9,5.01,0.00,21.8,20.1,00.0,30.3,23.3,15.5,-000.5,0009.12,0011.39,0008.67
2023-04-23 00:30:00,,0831.8,4.99,0.00,21.8,20.2,00.0,30.3,23.3,15.6,-000.3,0009.10,0011.37,0008.64
2023-04-23 00:31:00,,0831.8,4.98,0.00,21.8,20.2,00.0,30.3,23.3,15.6,-000.5,0009.03,0011.23,0008.62
2023-04-23 00:32:00,,0831.8,5.00,0.00,21.8,20.2,00.0,30.3,23.3,15.7,-000.6,0009.02,0011.18,0008.62
2023-04-23 00:33:00,,0831.9,5.02,0.00,21.8,20.8,00.0,30.2,23.6,15.5,-000.4,0009.02,0011.20,0008.61
2023-04-23 00:34:00,,0831.9,5.00,0.00,22.0,22.0,00.0,30.2,24.0,15.5,0000.1,0009.00,0011.10,0008.62
2023-04-23 00:35:00,,0832.0,4.98,0.00,22.1,22.4,00.0,30.3,24.0,15.4,0000.3,0009.01,0011.08,0008.63
2023-04-23 00:36:00,,0831.9,5.00,0.00,22.1,22.1,00.0,30.3,23.9,15.2,0000.0,0009.02,0011.11,0008.64
2023-04-23 00:37:00,,0831.9,5.01,0.00,22.1,21.8,00.0,30.4,23.8,15.2,-000.6,0008.98,0011.02,0008.63
2023-04-23 00:38:00,,0831.8,5.00,0.00,22.1,21.6,00.0,30.4,23.7,15.1,-000.2,0008.97,0010.99,0008.65
2023-04-23 00:39:00,,0831.8,5.00,0.00,22.1,21.3,00.0,30.4,23.7,15.3,0000.2,0008.97,0010.96,0008.65
2023-04-23 00:40:00,,0831.8,4.99,0.00,22.1,21.1,00.0,30.4,23.7,15.1,0000.7,0008.94,0010.89,0008.66
2023-04-23 00:41:00,,0831.8,5.00,0.00,22.1,21.0,00.0,30.5,23.7,15.1,0000.8,0008.94,0010.88,0008.66
2023-04-23 00:42:00,,0831.8,5.00,0.00,22.1,20.9,00.0,30.5,23.7,15.1,0000.8,0008.96,0011.10,0008.65
2023-04-23 00:43:00,,0831.8,5.01,0.00,22.1,20.8,00.0,30.5,23.6,15.4,0001.0,0008.95,0011.18,0008.64
2023-04-23 00:44:00,,0831.9,5.00,0.00,22.1,20.7,00.0,30.5,23.6,15.4,0000.7,0008.95,0011.21,0008.63
2023-04-23 00:45:00,,0831.8,5.00,0.00,22.1,20.7,00.0,30.5,23.6,15.3,0000.2,0008.94,0011.94,0008.60
2023-04-23 00:46:00,,0831.9,4.99,0.00,22.1,20.6,00.0,30.5,23.6,15.4,0000.2,0008.91,0012.21,0008.57
2023-04-23 00:47:00,,0832.1,4.99,0.00,22.0,20.5,00.0,30.5,23.6,15.3,0000.2,0008.91,0012.20,0008.56
2023-04-23 00:48:00,,0832.0,5.00,0.00,22.0,20.5,00.0,30.5,23.5,15.4,0000.1,0008.93,0012.24,0008.56
2023-04-23 00:49:00,,0832.1,5.01,0.00,22.0,20.4,00.0,30.5,23.5,15.5,-000.1,0008.95,0012.29,0008.56
2023-04-23 00:50:00,,0832.3,5.00,0.00,22.0,20.4,00.0,30.5,23.5,15.6,-000.3,0008.95,0012.21,0008.58
2023-04-23 00:51:00,,0832.2,4.99,0.00,22.0,20.4,00.0,30.5,23.5,15.7,-000.2,0008.99,0012.26,0008.61
2023-04-23 00:52:00,,0832.3,5.00,0.00,22.0,20.4,00.0,30.4,23.5,15.9,-000.0,0009.00,0012.27,0008.63
2023-04-23 00:53:00,,0832.4,4.99,0.00,22.0,20.4,00.0,30.4,23.5,15.6,-000.0,0009.01,0012.22,0008.65
2023-04-23 00:54:00,,0832.1,5.02,0.00,22.0,20.4,00.0,30.4,23.5,15.7,-000.2,0009.01,0012.15,0008.66
2023-04-23 00:55:00,,0831.8,5.01,0.00,22.0,20.4,00.0,30.4,23.5,15.8,-000.3,0009.01,0012.10,0008.69
2023-04-23 00:56:00,,0831.8,5.00,0.00,21.9,20.4,00.0,30.4,23.5,15.9,-000.2,0009.02,0011.51,0008.71
2023-04-23 00:57:00,,0831.8,5.00,0.00,21.9,20.4,00.0,30.4,23.5,15.9,-000.3,0009.05,0011.14,0008.75
2023-04-23 00:58:00,,0831.8,4.99,0.00,21.9,20.3,00.0,30.4,23.4,15.7,-000.2,0009.11,0011.25,0008.78
2023-04-23 00:59:00,,0831.8,4.99,0.00,21.9,20.2,00.0,30.4,23.4,15.6,-000.0,0009.16,0011.39,0008.81
